Location: LDNL
(36.4545°S, 141.6685°E)
Time: 09:06:51
(UTC+11:00)

Courier 1B - Pass Details

Date: 12 February 2023
Orbit: 962 x 1209 km, 28.3° (Epoch: 21 March)

Event Time Altitude Azimuth Distance (km) Brightness Sun altitude
Rises 20:56:22 0° 323° (NW) 3,651 10.7 -5.2°
Reaches altitude 10° 20:59:41 10° 339° (NNW) 2,731 9.9 -5.8°
Maximum altitude 21:04:21 20° 24° (NNE) 2,119 8.9 -6.7°
Drops below altitude 10° 21:09:11 10° 69° (ENE) 2,842 9.2 -7.6°
Enters shadow 21:09:37 - 72° (ENE) 2,950 9.3 -7.6°
